Location: Brno
(49.2000°N, 16.6330°E)
Time: 17:22:11
(UTC+02:00)

Transit 4A - Pass Details

Date: 01 August 2021
Orbit: 871 x 974 km, 66.8° (Epoch: 16 September)

Event Time Altitude Azimuth Distance (km) Brightness Sun altitude
Rises 00:31:08 0° 195° (SSW) 3,491 - -22.5°
Reaches altitude 10° 00:33:42 10° 190° (S) 2,542 - -22.5°
Exits shadow 00:38:25 45° 145° (SE) 1,174 8.0 -22.6°
Maximum altitude 00:39:19 49° 117° (ESE) 1,115 8.1 -22.6°
Drops below altitude 10° 00:44:54 10° 44° (NE) 2,528 10.7 -22.7°
Sets 00:47:26 0° 39° (NE) 3,469 11.6 -22.7°
